World > North America > United States > New York

Colden, New York Regional Weather

Lat: 42.64N, Lon: 78.69W
Wx Zone: NYZ085
Feedback

Colden, NY Regional Weather

Expires:202003301100;;298286
ASUS41 KALY 301010
RWRALY

NEW YORK STATE HOURLY WEATHER ROUNDUP
NATIONAL WEATHER SERVICE ALBANY NY
600 AM EDT MON MAR 30 2020

NOTE: "FAIR" INDICATES FEW OR NO CLOUDS BELOW 12,000 FEET WITH NO
SIGNIFICANT WEATHER AND/OR NO OBSTRUCTIONS TO VISIBILITY.


NYZ001>004-010>016-019>021-085-301100-
WEST

  
CITY           SKY/WX    TMP DP  RH WIND       PRES   REMARKS
NIAGARA FALLS  CLOUDY    44  38  79 SW13G22   29.76R                  
BUFFALO        LGT RAIN  46  38  73 SW24G37   29.77R                  
DUNKIRK        CLOUDY    48  39  71 SW18G32   29.80R                  
JAMESTOWN      LGT RAIN  43  41  93 SW12      29.81R                  
WELLSVILLE     CLOUDY    47  33  58 W9        29.80R                  
ROCHESTER      LGT RAIN  48  39  71 W23G37    29.79R                  
PENN YAN       CLOUDY    43  40  89 SW3       29.80F                  
$$

             KEY
       WCI = WIND CHILL INDEX
       VSB = VISIBILITY
       HX  = HEAT INDEX
$$
  

SKY/WX - Weather  TMP - Temperature  DP - Dew Point  RH - Relative Humidity
WIND - Wind Direction/Speed PRES - Barometric Pressure VSB - Visibility
WCI - Wind Chill Index E13G22 Wind - East Wind 13 mph/Gusts of 22 mph
Colden Weather Map
UTC Time: 3/30/2020, 10:40
Your Time: